�������l�o���
Date,Time,MP-1(��Sv/h),MP-2(��Sv/h),MP-3(��Sv/h),MP-4(��Sv/h),MP-5(��Sv/h),MP-6(��Sv/h),MP-7(��Sv/h),MP-8(��Sv/h),����,����(m/s),���J
2018/07/27,00:00,0.904,1.301,0.907,1.629,1.163,0.486,0.850,0.801,�쐼,3.6,��
2018/07/27,00:10,0.904,1.297,0.911,1.627,1.165,0.486,0.851,0.800,�쐼,3.9,��
2018/07/27,00:20,0.902,1.296,0.910,1.628,1.163,0.489,0.848,0.802,�쐼,4.0,��
2018/07/27,00:30,0.901,1.297,0.908,1.629,1.163,0.486,0.848,0.801,��쐼,4.1,��
2018/07/27,00:40,0.900,1.297,0.907,1.628,1.160,0.487,0.850,0.801,��쐼,3.8,��
2018/07/27,00:50,0.902,1.298,0.910,1.625,1.162,0.486,0.849,0.800,��쐼,3.4,��
2018/07/27,01:00,0.902,1.300,0.909,1.628,1.161,0.486,0.849,0.800,��쐼,3.6,��
2018/07/27,01:10,0.901,1.299,0.908,1.626,1.163,0.486,0.850,0.803,��쐼,2.9,��
2018/07/27,01:20,0.902,1.298,0.910,1.627,1.160,0.485,0.849,0.802,��쐼,2.2,��
2018/07/27,01:30,0.901,1.297,0.907,1.627,1.162,0.487,0.850,0.801,��쐼,2.0,��
2018/07/27,01:40,0.902,1.297,0.907,1.628,1.164,0.485,0.850,0.803,��쐼,2.0,��
2018/07/27,01:50,0.901,1.299,0.910,1.627,1.164,0.486,0.848,0.802,��쐼,1.5,��
2018/07/27,02:00,0.901,1.297,0.910,1.627,1.160,0.485,0.848,0.799,��쐼,1.1,��
2018/07/27,02:10,0.900,1.298,0.910,1.629,1.163,0.487,0.851,0.802,��쐼,1.2,��
2018/07/27,02:20,0.901,1.298,0.911,1.627,1.164,0.486,0.849,0.803,��쐼,1.2,��
2018/07/27,02:30,0.902,1.295,0.909,1.627,1.163,0.484,0.849,0.802,�쐼,1.1,��
2018/07/27,02:40,0.903,1.298,0.911,1.626,1.161,0.483,0.850,0.802,��,0.9,��
2018/07/27,02:50,0.901,1.298,0.910,1.628,1.161,0.486,0.849,0.803,���k��,1.2,��
2018/07/27,03:00,0.901,1.298,0.906,1.632,1.159,0.485,0.850,0.802,���k��,1.2,��
2018/07/27,03:10,0.902,1.298,0.910,1.624,1.158,0.486,0.850,0.801,���k��,0.8,��
2018/07/27,03:20,0.901,1.296,0.910,1.630,1.161,0.486,0.848,0.801,�k�k��,0.9,��
2018/07/27,03:30,0.903,1.296,0.908,1.626,1.160,0.485,0.850,0.802,-,CALM,��
2018/07/27,03:40,0.900,1.297,0.910,1.628,1.159,0.484,0.848,0.802,-,CALM,��
2018/07/27,03:50,0.902,1.297,0.908,1.625,1.160,0.485,0.850,0.802,�k��,0.6,��
2018/07/27,04:00,0.899,1.295,0.908,1.627,1.160,0.485,0.848,0.802,�k�k��,1.2,��
2018/07/27,04:10,0.900,1.298,0.907,1.628,1.162,0.485,0.849,0.802,�k�k��,1.5,��
2018/07/27,04:20,0.898,1.297,0.910,1.627,1.159,0.484,0.849,0.801,�k�k��,1.1,��
2018/07/27,04:30,0.899,1.294,0.909,1.626,1.160,0.486,0.849,0.802,�k�k��,1.2,��
2018/07/27,04:40,0.898,1.294,0.908,1.626,1.158,0.485,0.848,0.803,�k��,1.5,��
2018/07/27,04:50,0.900,1.293,0.909,1.627,1.160,0.485,0.849,0.802,���k��,1.5,��
2018/07/27,05:00,0.900,1.296,0.909,1.625,1.161,0.484,0.848,0.801,�k��,2.0,��
2018/07/27,05:10,0.900,1.295,0.907,1.629,1.159,0.484,0.850,0.802,�k�k��,1.9,��
2018/07/27,05:20,0.900,1.294,0.909,1.628,1.159,0.486,0.850,0.802,�k�k��,1.7,��
2018/07/27,05:30,0.898,1.294,0.910,1.628,1.160,0.485,0.848,0.802,�k�k��,1.5,��
2018/07/27,05:40,0.901,1.297,0.910,1.627,1.161,0.485,0.849,0.802,�k�k��,1.2,��
2018/07/27,05:50,0.902,1.296,0.911,1.629,1.162,0.484,0.850,0.802,�k,0.8,��
2018/07/27,06:00,0.901,1.295,0.909,1.629,1.160,0.484,0.851,0.801,�k�k��,1.1,��
2018/07/27,06:10,0.900,1.296,0.909,1.631,1.163,0.483,0.850,0.802,�k,1.5,��
2018/07/27,06:20,0.903,1.298,0.908,1.629,1.160,0.484,0.848,0.803,�k,1.5,��
2018/07/27,06:30,0.899,1.298,0.909,1.630,1.158,0.482,0.851,0.803,�k�k��,1.4,��
2018/07/27,06:40,0.901,1.294,0.909,1.630,1.158,0.483,0.852,0.804,�k�k��,1.2,��
2018/07/27,06:50,0.900,1.294,0.909,1.629,1.159,0.482,0.851,0.801,�k��,1.5,��
2018/07/27,07:00,0.902,1.295,0.908,1.630,1.161,0.481,0.851,0.802,�k��,1.2,��
2018/07/27,07:10,0.900,1.294,0.910,1.629,1.160,0.482,0.851,0.803,�k�k��,1.5,��
2018/07/27,07:20,0.903,1.292,0.906,1.629,1.159,0.483,0.851,0.804,�k,1.5,��
2018/07/27,07:30,0.902,1.295,0.910,1.629,1.163,0.480,0.850,0.803,�k�k��,1.4,��
2018/07/27,07:40,0.904,1.296,0.911,1.625,1.163,0.480,0.851,0.802,�k��,1.5,��
2018/07/27,07:50,0.903,1.294,0.909,1.630,1.161,0.481,0.849,0.803,���쓌,2.3,��
2018/07/27,08:00,0.902,1.291,0.910,1.628,1.159,0.483,0.850,0.803,�k��,2.0,��
2018/07/27,08:10,0.901,1.293,0.910,1.626,1.158,0.485,0.849,0.799,���k��,2.2,��
2018/07/27,08:20,0.898,1.293,0.907,1.631,1.159,0.483,0.848,0.800,���k��,2.0,��
2018/07/27,08:30,0.902,1.296,0.908,1.628,1.161,0.482,0.849,0.801,���k��,2.2,��
2018/07/27,08:40,0.903,1.293,0.908,1.633,1.161,0.484,0.850,0.802,���k��,2.0,��
2018/07/27,08:50,0.899,1.293,0.911,1.628,1.163,0.483,0.850,0.800,���k��,2.6,��
2018/07/27,09:00,0.902,1.294,0.909,1.628,1.160,0.482,0.850,0.801,���k��,2.6,��
2018/07/27,09:10,0.902,1.290,0.908,1.630,1.160,0.484,0.851,0.801,��,3.2,��
2018/07/27,09:20,0.902,1.293,0.909,1.631,1.161,0.484,0.851,0.800,��,3.0,��
2018/07/27,09:30,0.903,1.290,0.909,1.631,1.164,0.484,0.850,0.801,��,3.3,��
2018/07/27,09:40,0.905,1.292,0.909,1.630,1.161,0.486,0.849,0.801,���쓌,3.0,��
2018/07/27,09:50,0.906,1.295,0.908,1.631,1.162,0.483,0.850,0.799,���쓌,2.5,��
2018/07/27,10:00,0.906,1.294,0.909,1.632,1.161,0.483,0.850,0.802,��,2.0,��
2018/07/27,10:10,0.905,1.293,0.907,1.632,1.163,0.484,0.851,0.801,��,2.8,��
2018/07/27,10:20,0.907,1.295,0.907,1.631,1.163,0.483,0.850,0.801,���k��,2.5,��
2018/07/27,10:30,0.905,1.296,0.908,1.633,1.161,0.484,0.849,0.802,��,2.5,��
2018/07/27,10:40,0.908,1.296,0.910,1.633,1.164,0.483,0.850,0.800,���k��,2.2,��
2018/07/27,10:50,0.907,1.297,0.910,1.630,1.163,0.484,0.849,0.801,���k��,3.3,��
2018/07/27,11:00,0.903,1.297,0.910,1.630,1.165,0.484,0.850,0.802,��,3.2,��
2018/07/27,11:10,0.907,1.295,0.908,1.628,1.163,0.483,0.850,0.802,���쓌,3.3,��
2018/07/27,11:20,0.904,1.295,0.909,1.625,1.165,0.483,0.851,0.801,��,3.0,��
2018/07/27,11:30,0.904,1.296,0.911,1.629,1.164,0.483,0.851,0.800,��,2.6,��
2018/07/27,11:40,0.907,1.298,0.909,1.629,1.164,0.482,0.850,0.802,��,3.0,��
2018/07/27,11:50,0.907,1.297,0.911,1.628,1.166,0.485,0.850,0.801,��,3.8,��
2018/07/27,12:00,0.905,1.297,0.910,1.629,1.163,0.483,0.851,0.802,��,3.8,��
2018/07/27,12:10,0.906,1.299,0.909,1.630,1.162,0.484,0.850,0.802,���쓌,3.2,��
2018/07/27,12:20,0.906,1.295,0.910,1.628,1.163,0.484,0.851,0.800,��,3.5,��
2018/07/27,12:30,0.908,1.298,0.909,1.628,1.166,0.482,0.850,0.801,���쓌,3.4,��
2018/07/27,12:40,0.908,1.299,0.908,1.625,1.164,0.483,0.850,0.802,��,2.6,��
2018/07/27,12:50,0.911,1.300,0.909,1.630,1.165,0.483,0.851,0.803,��,2.8,��
2018/07/27,13:00,0.914,1.299,0.908,1.630,1.166,0.483,0.850,0.802,��,2.3,��
2018/07/27,13:10,0.914,1.300,0.909,1.630,1.164,0.483,0.852,0.803,��,2.5,��
2018/07/27,13:20,0.912,1.302,0.909,1.629,1.165,0.482,0.851,0.801,��,2.3,��
2018/07/27,13:30,0.914,1.300,0.911,1.629,1.167,0.483,0.851,0.800,��,2.6,��
2018/07/27,13:40,0.914,1.301,0.911,1.629,1.165,0.482,0.852,0.801,���k��,3.4,��
2018/07/27,13:50,0.913,1.299,0.913,1.631,1.168,0.483,0.854,0.803,���k��,4.1,��
2018/07/27,14:00,0.915,1.298,0.911,1.632,1.171,0.484,0.850,0.803,���k��,3.3,��
2018/07/27,14:10,0.916,1.296,0.915,1.630,1.168,0.483,0.854,0.799,��,3.9,��
2018/07/27,14:20,0.916,1.300,0.912,1.630,1.168,0.485,0.849,0.802,���k��,3.2,��
2018/07/27,14:30,0.914,1.299,0.913,1.631,1.168,0.482,0.851,0.801,���k��,4.0,��
2018/07/27,14:40,0.916,1.296,0.912,1.629,1.167,0.484,0.851,0.802,��,4.3,��
2018/07/27,14:50,0.916,1.299,0.914,1.631,1.168,0.482,0.851,0.800,���쓌,4.2,��
2018/07/27,15:00,0.914,1.299,0.912,1.630,1.164,0.482,0.852,0.801,�쓌,7.0,��
2018/07/27,15:10,0.913,1.301,0.911,1.629,1.164,0.484,0.851,0.802,���쓌,5.3,��
2018/07/27,15:20,0.914,1.304,0.913,1.629,1.166,0.483,0.851,0.802,���쓌,4.1,��
2018/07/27,15:30,0.914,1.305,0.911,1.630,1.164,0.482,0.852,0.800,�쓌,4.5,��
2018/07/27,15:40,0.914,1.304,0.909,1.628,1.165,0.484,0.850,0.802,���쓌,4.9,��
2018/07/27,15:50,0.915,1.301,0.910,1.629,1.177,0.483,0.851,0.802,�쓌,3.4,��
2018/07/27,16:00,0.917,1.302,0.911,1.631,1.179,0.483,0.850,0.802,���쓌,2.6,��
2018/07/27,16:10,0.915,1.301,0.913,1.631,1.180,0.483,0.852,0.802,�쓌,3.1,��
2018/07/27,16:20,0.917,1.301,0.912,1.631,1.179,0.485,0.852,0.801,�쓌,2.3,��
2018/07/27,16:30,0.916,1.300,0.912,1.630,1.184,0.485,0.852,0.803,���쓌,3.1,��
2018/07/27,16:40,0.915,1.302,0.913,1.630,1.187,0.484,0.851,0.801,���쓌,3.1,��
2018/07/27,16:50,0.916,1.303,0.914,1.631,1.187,0.485,0.852,0.800,��,2.0,��
2018/07/27,17:00,0.914,1.301,0.914,1.633,1.188,0.485,0.849,0.803,���쓌,2.2,��
2018/07/27,17:10,0.915,1.305,0.912,1.632,1.185,0.484,0.853,0.801,��,2.5,��
2018/07/27,17:20,0.915,1.301,0.914,1.630,1.189,0.483,0.854,0.802,��,2.2,��
2018/07/27,17:30,0.914,1.305,0.914,1.634,1.189,0.486,0.853,0.801,��,2.0,��
2018/07/27,17:40,0.914,1.303,0.916,1.628,1.191,0.484,0.851,0.801,��,1.7,��
2018/07/27,17:50,0.916,1.303,0.914,1.631,1.189,0.484,0.852,0.801,��,2.0,��
2018/07/27,18:00,0.915,1.305,0.913,1.634,1.189,0.485,0.852,0.802,��,1.5,��
2018/07/27,18:10,0.914,1.304,0.913,1.633,1.189,0.485,0.852,0.804,��,1.7,��
2018/07/27,18:20,0.914,1.302,0.912,1.632,1.190,0.484,0.852,0.803,���쓌,2.2,��
2018/07/27,18:30,0.915,1.305,0.913,1.632,1.188,0.482,0.853,0.802,���쓌,1.5,��
2018/07/27,18:40,0.913,1.304,0.914,1.632,1.188,0.486,0.851,0.804,���쓌,2.3,��
2018/07/27,18:50,0.913,1.302,0.914,1.629,1.187,0.484,0.851,0.803,���쓌,0.9,��
2018/07/27,19:00,0.914,1.301,0.915,1.633,1.188,0.485,0.852,0.803,���쓌,1.7,��
2018/07/27,19:10,0.916,1.305,0.914,1.632,1.187,0.484,0.853,0.802,���쓌,1.7,��
2018/07/27,19:20,0.916,1.304,0.914,1.632,1.185,0.484,0.851,0.802,��,1.5,��
2018/07/27,19:30,0.914,1.303,0.914,1.632,1.188,0.484,0.851,0.803,���k��,1.2,��
2018/07/27,19:40,0.918,1.304,0.913,1.632,1.186,0.485,0.851,0.804,���쓌,1.2,��
2018/07/27,19:50,0.913,1.306,0.915,1.630,1.188,0.485,0.853,0.801,��,1.2,��
2018/07/27,20:00,0.915,1.305,0.914,1.632,1.187,0.484,0.849,0.803,��,1.2,��
2018/07/27,20:10,0.915,1.304,0.911,1.631,1.187,0.484,0.850,0.803,���k��,0.8,��
2018/07/27,20:20,0.914,1.303,0.915,1.631,1.189,0.484,0.851,0.802,��,0.9,��
2018/07/27,20:30,0.914,1.302,0.914,1.631,1.188,0.483,0.852,0.804,��,0.9,��
2018/07/27,20:40,0.916,1.302,0.914,1.630,1.187,0.484,0.851,0.804,��,0.6,��
2018/07/27,20:50,0.917,1.302,0.913,1.627,1.187,0.485,0.851,0.801,-,CALM,��
2018/07/27,21:00,0.915,1.304,0.913,1.631,1.190,0.484,0.851,0.802,���k��,0.8,��
2018/07/27,21:10,0.914,1.301,0.911,1.632,1.188,0.484,0.850,0.802,���k��,0.6,��
2018/07/27,21:20,0.916,1.304,0.913,1.631,1.188,0.483,0.851,0.803,���k��,0.6,��
2018/07/27,21:30,0.914,1.304,0.913,1.631,1.186,0.484,0.850,0.803,�k��,1.2,��
2018/07/27,21:40,0.917,1.303,0.913,1.631,1.189,0.484,0.852,0.802,�k��,1.7,��
2018/07/27,21:50,0.913,1.305,0.915,1.631,1.187,0.483,0.852,0.804,�k��,1.2,��
2018/07/27,22:00,0.916,1.301,0.913,1.629,1.187,0.485,0.850,0.803,�k��,1.2,��
2018/07/27,22:10,0.914,1.306,0.914,1.631,1.185,0.486,0.851,0.803,�k�k��,1.4,��
2018/07/27,22:20,0.915,1.303,0.912,1.632,1.188,0.484,0.850,0.804,�k,1.7,��
2018/07/27,22:30,0.914,1.304,0.913,1.630,1.187,0.484,0.851,0.802,�k,2.3,��
2018/07/27,22:40,0.916,1.305,0.912,1.631,1.187,0.483,0.851,0.802,�k�k��,2.5,��
2018/07/27,22:50,0.915,1.304,0.915,1.631,1.184,0.485,0.852,0.803,�k,2.0,��
2018/07/27,23:00,0.913,1.304,0.914,1.630,1.187,0.483,0.852,0.803,�k,2.3,��
2018/07/27,23:10,0.914,1.303,0.913,1.631,1.186,0.484,0.850,0.801,�k,3.2,��
2018/07/27,23:20,0.915,1.306,0.912,1.633,1.185,0.483,0.851,0.802,�k,2.9,��
2018/07/27,23:30,0.916,1.303,0.910,1.635,1.187,0.483,0.852,0.804,�k,2.9,��
2018/07/27,23:40,0.915,1.302,0.913,1.631,1.187,0.484,0.851,0.803,�k�k��,3.4,��
2018/07/27,23:50,0.915,1.304,0.914,1.632,1.188,0.484,0.850,0.803,�k,3.3,��
